{"data":{"norad_id":60429,"intl_designator":"2024-144E","name":"STARLINK-32242","alt_names":[],"object_type":"PAYLOAD","status":"ACTIVE","operator":null,"country":"US","launch_date":"2024-08-12","launch_site_code":"AFETR","launch_vehicle":null,"mission":null,"orbit_class":"UNKNOWN","rcs_meters":null,"size_class":null,"mass_kg":null,"dimensions":null,"purposes":["comms"],"wikipedia_slug":null,"has_3d_model":false,"image_url":null,"decayed_at":null,"tle_current":{"epoch":"2026-09-21T19:42:30.261312Z","epoch_age_seconds":71438,"freshness":"FRESH","line1":"1 60429U 24144E   26264.82118358  .00000562  00000+0  27771-4 0  9992","line2":"2 60429  53.1612  23.5784 0001073  86.0293 274.0832 15.34395044119419","mean_motion":15.34395044,"eccentricity":0.0001073,"inclination_deg":53.1612,"raan_deg":23.5784,"arg_perigee_deg":86.0293,"mean_anomaly_deg":274.0832,"bstar":2.7771e-5,"rev_number":11941,"period_min":93.848061203722,"perigee_km":461.98394678485,"apogee_km":463.45199426152,"semimajor_km":6840.8549705232,"source":"CELESTRAK","updated_at":"2026-09-22T09:00:49.234131Z"}}}